Time,TemperatureF,DewpointF,PressureIn,WindDirection,WindDirectionDegrees,WindSpeedMPH,WindSpeedGustMPH,Humidity,HourlyPrecipIn,Conditions,Clouds,dailyrainin,SoftwareType,DateUTC
2013-12-04 00:01:00,36.1,34.6,0.00,West,271,0.0,197.8,94,3.49,,,0.00,VWS V14.01,2013-12-04 05:01:00,
2013-12-04 00:02:00,36.2,34.8,0.00,West,271,0.0,197.8,94,3.49,,,0.00,VWS V14.01,2013-12-04 05:02:00,
2013-12-04 00:03:00,36.2,34.8,0.00,West,271,0.0,197.8,95,3.49,,,0.00,VWS V14.01,2013-12-04 05:03:00,
2013-12-04 00:05:00,36.3,34.8,0.00,West,271,0.0,197.8,94,3.49,,,0.00,VWS V14.01,2013-12-04 05:05:00,
2013-12-04 00:06:00,36.2,34.7,0.00,West,271,0.0,197.8,94,3.49,,,0.00,VWS V14.01,2013-12-04 05:06:00,
2013-12-04 00:07:00,36.2,34.6,0.00,West,271,0.0,197.8,94,3.49,,,0.00,VWS V14.01,2013-12-04 05:07:00,
2013-12-04 00:12:00,36.1,34.5,0.00,West,271,0.0,197.8,94,3.49,,,0.00,VWS V14.01,2013-12-04 05:12:00,
2013-12-04 00:17:00,36.0,34.4,0.00,West,271,0.0,197.8,94,3.49,,,0.00,VWS V14.01,2013-12-04 05:17:00,
2013-12-04 00:22:00,35.9,34.3,0.00,West,271,0.0,197.8,94,3.49,,,0.00,VWS V14.01,2013-12-04 05:22:00,
2013-12-04 00:28:00,35.7,34.1,0.00,West,271,0.0,197.8,94,3.49,,,0.00,VWS V14.01,2013-12-04 05:28:00,
2013-12-04 00:33:00,35.5,33.9,0.00,West,271,0.0,197.8,94,3.49,,,0.00,VWS V14.01,2013-12-04 05:33:00,
2013-12-04 00:38:00,35.5,33.9,0.00,West,271,0.0,197.8,94,3.49,,,0.00,VWS V14.01,2013-12-04 05:38:00,
2013-12-04 00:43:00,35.5,33.9,0.00,West,271,0.0,197.8,94,3.49,,,0.00,VWS V14.01,2013-12-04 05:43:00,
2013-12-04 00:48:00,35.5,33.9,0.00,West,271,0.0,197.8,94,3.49,,,0.00,VWS V14.01,2013-12-04 05:48:00,
2013-12-04 00:53:00,35.6,33.9,0.00,West,271,0.0,197.8,94,3.49,,,0.00,VWS V14.01,2013-12-04 05:53:00,
2013-12-04 00:59:00,35.6,33.9,0.00,West,271,0.0,197.8,93,3.49,,,0.00,VWS V14.01,2013-12-04 05:59:00,
2013-12-04 01:04:00,35.5,33.7,0.00,West,271,0.0,197.8,93,3.49,,,0.00,VWS V14.01,2013-12-04 06:04:00,
2013-12-04 01:09:00,35.7,33.8,0.00,West,271,0.0,197.8,93,3.49,,,0.00,VWS V14.01,2013-12-04 06:09:00,
2013-12-04 01:14:00,35.6,33.7,0.00,West,271,0.0,197.8,92,3.49,,,0.00,VWS V14.01,2013-12-04 06:14:00,
2013-12-04 01:19:00,35.5,33.5,0.00,West,271,0.0,197.8,92,3.49,,,0.00,VWS V14.01,2013-12-04 06:19:00,
2013-12-04 01:25:00,35.5,33.4,0.00,West,271,0.0,197.8,92,3.49,,,0.00,VWS V14.01,2013-12-04 06:25:00,
2013-12-04 01:30:00,35.5,33.4,0.00,West,271,0.0,197.8,92,3.49,,,0.00,VWS V14.01,2013-12-04 06:30:00,
2013-12-04 01:35:00,35.5,33.2,0.00,West,271,0.0,197.8,91,3.49,,,0.00,VWS V14.01,2013-12-04 06:35:00,
2013-12-04 01:40:00,35.4,33.3,0.00,West,271,0.0,197.8,92,3.49,,,0.00,VWS V14.01,2013-12-04 06:40:00,
2013-12-04 01:45:00,35.2,33.1,0.00,West,271,0.0,197.8,92,3.49,,,0.00,VWS V14.01,2013-12-04 06:45:00,
2013-12-04 01:51:00,35.2,33.1,0.00,West,271,0.0,197.8,92,3.49,,,0.00,VWS V14.01,2013-12-04 06:51:00,
2013-12-04 01:56:00,35.2,33.1,0.00,West,271,0.0,197.8,92,3.49,,,0.00,VWS V14.01,2013-12-04 06:56:00,
2013-12-04 02:01:00,35.2,33.0,0.00,West,271,0.0,197.8,92,3.49,,,0.00,VWS V14.01,2013-12-04 07:01:00,
2013-12-04 02:06:00,35.2,33.0,0.00,West,271,0.0,197.8,92,3.49,,,0.00,VWS V14.01,2013-12-04 07:06:00,
2013-12-04 02:11:00,35.2,32.9,0.00,West,271,0.0,197.8,91,3.49,,,0.00,VWS V14.01,2013-12-04 07:11:00,
2013-12-04 02:17:00,35.2,32.9,0.00,West,271,0.0,197.8,91,3.49,,,0.00,VWS V14.01,2013-12-04 07:17:00,
2013-12-04 02:22:00,35.3,32.9,0.00,West,271,0.0,197.8,91,3.49,,,0.00,VWS V14.01,2013-12-04 07:22:00,
2013-12-04 02:27:00,35.3,32.8,0.00,West,271,0.0,197.8,91,3.49,,,0.00,VWS V14.01,2013-12-04 07:27:00,
2013-12-04 02:32:00,35.4,32.9,0.00,West,271,0.0,197.8,90,3.49,,,0.00,VWS V14.01,2013-12-04 07:32:00,
2013-12-04 02:37:00,35.4,32.9,0.00,West,271,0.0,197.8,91,3.49,,,0.00,VWS V14.01,2013-12-04 07:37:00,
2013-12-04 02:43:00,35.2,32.8,0.00,West,271,0.0,197.8,91,3.49,,,0.00,VWS V14.01,2013-12-04 07:43:00,
2013-12-04 02:48:00,35.1,32.8,0.00,West,271,0.0,197.8,91,3.49,,,0.00,VWS V14.01,2013-12-04 07:48:00,
2013-12-04 02:54:00,35.0,32.8,0.00,West,271,0.0,197.8,91,3.49,,,0.00,VWS V14.01,2013-12-04 07:54:00,
2013-12-04 02:59:00,35.1,32.8,0.00,West,271,0.0,197.8,91,3.49,,,0.00,VWS V14.01,2013-12-04 07:59:00,
2013-12-04 03:04:00,34.8,32.7,0.00,West,271,0.0,197.8,92,3.49,,,0.00,VWS V14.01,2013-12-04 08:04:00,
2013-12-04 03:09:00,34.2,32.4,0.00,West,271,0.0,197.8,93,3.49,,,0.00,VWS V14.01,2013-12-04 08:09:00,
2013-12-04 03:15:00,34.1,32.4,0.00,West,271,0.0,197.8,93,3.49,,,0.00,VWS V14.01,2013-12-04 08:15:00,
2013-12-04 03:20:00,34.2,32.4,0.00,West,271,0.0,197.8,93,3.49,,,0.00,VWS V14.01,2013-12-04 08:20:00,
2013-12-04 03:25:00,34.4,32.4,0.00,West,271,0.0,197.8,92,3.49,,,0.00,VWS V14.01,2013-12-04 08:25:00,
2013-12-04 03:30:00,34.6,32.5,0.00,West,271,0.0,197.8,92,3.49,,,0.00,VWS V14.01,2013-12-04 08:30:00,
2013-12-04 03:36:00,34.7,32.6,0.00,West,271,0.0,197.8,92,3.49,,,0.00,VWS V14.01,2013-12-04 08:36:00,
2013-12-04 03:41:00,34.6,32.5,0.00,West,271,0.0,197.8,92,3.49,,,0.00,VWS V14.01,2013-12-04 08:41:00,
2013-12-04 03:46:00,34.3,32.4,0.00,West,271,0.0,197.8,93,3.49,,,0.00,VWS V14.01,2013-12-04 08:46:00,
2013-12-04 03:51:00,33.9,32.5,0.00,West,271,0.0,197.8,95,3.49,,,0.00,VWS V14.01,2013-12-04 08:51:00,
2013-12-04 03:56:00,33.5,32.2,0.00,West,271,0.0,197.8,95,3.49,,,0.00,VWS V14.01,2013-12-04 08:56:00,
2013-12-04 04:02:00,33.1,31.8,0.00,West,271,0.0,197.8,95,3.49,,,0.00,VWS V14.01,2013-12-04 09:02:00,
2013-12-04 04:07:00,33.0,31.7,0.00,West,271,0.0,197.8,95,3.49,,,0.00,VWS V14.01,2013-12-04 09:07:00,
2013-12-04 04:12:00,32.9,31.7,0.00,West,271,0.0,197.8,95,3.49,,,0.00,VWS V14.01,2013-12-04 09:12:00,
2013-12-04 04:17:00,32.8,31.5,0.00,West,271,0.0,197.8,95,3.49,,,0.00,VWS V14.01,2013-12-04 09:17:00,
2013-12-04 04:22:00,32.7,31.4,0.00,West,271,0.0,197.8,95,3.49,,,0.00,VWS V14.01,2013-12-04 09:22:00,
2013-12-04 04:27:00,33.2,31.7,0.00,West,271,0.0,197.8,94,3.49,,,0.00,VWS V14.01,2013-12-04 09:27:00,
2013-12-04 04:33:00,33.4,31.8,0.00,West,271,0.0,197.8,94,3.49,,,0.00,VWS V14.01,2013-12-04 09:33:00,
2013-12-04 04:38:00,33.6,32.0,0.00,West,271,0.0,197.8,94,3.49,,,0.00,VWS V14.01,2013-12-04 09:38:00,
2013-12-04 04:43:00,33.6,31.9,0.00,West,271,0.0,197.8,94,3.49,,,0.00,VWS V14.01,2013-12-04 09:43:00,
2013-12-04 04:48:00,33.3,31.7,0.00,West,271,0.0,197.8,94,3.49,,,0.00,VWS V14.01,2013-12-04 09:48:00,
2013-12-04 04:53:00,33.1,31.6,0.00,West,271,0.0,197.8,94,3.49,,,0.00,VWS V14.01,2013-12-04 09:53:00,
2013-12-04 04:59:00,32.9,31.5,0.00,West,271,0.0,197.8,94,3.49,,,0.00,VWS V14.01,2013-12-04 09:59:00,
2013-12-04 05:04:00,33.3,31.7,0.00,West,271,0.0,197.8,94,3.49,,,0.00,VWS V14.01,2013-12-04 10:04:00,
2013-12-04 05:09:00,33.7,31.9,0.00,West,271,0.0,197.8,93,3.49,,,0.00,VWS V14.01,2013-12-04 10:09:00,
2013-12-04 05:14:00,33.8,31.9,0.00,West,271,0.0,197.8,93,3.49,,,0.00,VWS V14.01,2013-12-04 10:14:00,
2013-12-04 05:19:00,34.2,32.1,0.00,West,271,0.0,197.8,92,3.49,,,0.00,VWS V14.01,2013-12-04 10:19:00,
2013-12-04 05:24:00,34.1,32.0,0.00,West,271,0.0,197.8,92,3.49,,,0.00,VWS V14.01,2013-12-04 10:24:00,
2013-12-04 05:30:00,34.2,32.2,0.00,West,271,0.0,197.8,92,3.49,,,0.00,VWS V14.01,2013-12-04 10:30:00,
2013-12-04 05:35:00,34.2,32.2,0.00,West,271,0.0,197.8,92,3.49,,,0.00,VWS V14.01,2013-12-04 10:35:00,
2013-12-04 05:40:00,34.2,32.2,0.00,West,271,0.0,197.8,92,3.49,,,0.00,VWS V14.01,2013-12-04 10:40:00,
2013-12-04 05:46:00,34.2,32.2,0.00,West,271,0.0,197.8,92,3.49,,,0.00,VWS V14.01,2013-12-04 10:46:00,
2013-12-04 05:51:00,34.4,32.2,0.00,West,271,0.0,197.8,92,3.49,,,0.00,VWS V14.01,2013-12-04 10:51:00,
2013-12-04 05:56:00,34.7,32.5,0.00,West,271,0.0,197.8,91,3.49,,,0.00,VWS V14.01,2013-12-04 10:56:00,
2013-12-04 06:01:00,34.8,32.4,0.00,West,271,0.0,197.8,91,3.49,,,0.00,VWS V14.01,2013-12-04 11:01:00,
2013-12-04 06:07:00,34.9,32.5,0.00,West,271,0.0,197.8,91,3.49,,,0.00,VWS V14.01,2013-12-04 11:07:00,
2013-12-04 06:12:00,35.1,32.6,0.00,West,271,0.0,197.8,91,3.49,,,0.00,VWS V14.01,2013-12-04 11:12:00,
2013-12-04 06:17:00,35.2,32.7,0.00,West,271,0.0,197.8,90,3.49,,,0.00,VWS V14.01,2013-12-04 11:17:00,
2013-12-04 06:22:00,35.3,32.8,0.00,West,271,0.0,197.8,91,3.49,,,0.00,VWS V14.01,2013-12-04 11:22:00,
2013-12-04 06:27:00,35.5,33.0,0.00,West,271,0.0,197.8,91,3.49,,,0.00,VWS V14.01,2013-12-04 11:27:00,
2013-12-04 06:33:00,35.5,33.0,0.00,West,271,0.0,197.8,90,3.49,,,0.00,VWS V14.01,2013-12-04 11:33:00,
2013-12-04 06:38:00,35.5,32.9,0.00,West,271,0.0,197.8,90,3.49,,,0.00,VWS V14.01,2013-12-04 11:38:00,
2013-12-04 06:43:00,35.4,32.7,0.00,West,271,0.0,197.8,90,3.49,,,0.00,VWS V14.01,2013-12-04 11:43:00,
2013-12-04 06:48:00,35.3,32.8,0.00,West,271,0.0,197.8,90,3.49,,,0.00,VWS V14.01,2013-12-04 11:48:00,
2013-12-04 06:53:00,35.3,32.8,0.00,West,271,0.0,197.8,90,3.49,,,0.00,VWS V14.01,2013-12-04 11:53:00,
2013-12-04 06:58:00,35.3,32.8,0.00,West,271,0.0,197.8,90,3.49,,,0.00,VWS V14.01,2013-12-04 11:58:00,
2013-12-04 07:04:00,35.5,33.0,0.00,West,271,0.0,197.8,90,3.49,,,0.00,VWS V14.01,2013-12-04 12:04:00,
2013-12-04 07:09:00,35.5,33.0,0.00,West,271,0.0,197.8,91,3.49,,,0.00,VWS V14.01,2013-12-04 12:09:00,
2013-12-04 07:14:00,35.8,33.3,0.00,West,271,0.0,197.8,91,3.49,,,0.00,VWS V14.01,2013-12-04 12:14:00,
2013-12-04 07:19:00,35.9,33.4,0.00,West,271,0.0,197.8,91,3.49,,,0.00,VWS V14.01,2013-12-04 12:19:00,
2013-12-04 07:25:00,36.1,33.5,0.00,West,271,0.0,197.8,90,3.49,,,0.00,VWS V14.01,2013-12-04 12:25:00,
2013-12-04 07:30:00,36.1,33.5,0.00,West,271,0.0,197.8,90,3.49,,,0.00,VWS V14.01,2013-12-04 12:30:00,
2013-12-04 07:36:00,36.2,33.5,0.00,West,271,0.0,197.8,90,3.49,,,0.00,VWS V14.01,2013-12-04 12:36:00,
2013-12-04 07:41:00,36.1,33.5,0.00,West,271,0.0,197.8,90,3.49,,,0.00,VWS V14.01,2013-12-04 12:41:00,
2013-12-04 07:47:00,36.3,33.8,0.00,West,271,0.0,197.8,90,3.49,,,0.00,VWS V14.01,2013-12-04 12:47:00,
2013-12-04 07:52:00,36.5,33.9,0.00,West,271,0.0,197.8,90,3.49,,,0.00,VWS V14.01,2013-12-04 12:52:00,
2013-12-04 07:57:00,36.6,33.8,0.00,West,271,0.0,197.8,90,3.49,,,0.00,VWS V14.01,2013-12-04 12:57:00,
2013-12-04 08:03:00,36.7,33.9,0.00,West,271,0.0,197.8,90,3.49,,,0.00,VWS V14.01,2013-12-04 13:03:00,
2013-12-04 08:08:00,36.6,33.6,0.00,West,271,0.0,197.8,89,3.49,,,0.00,VWS V14.01,2013-12-04 13:08:00,
2013-12-04 08:13:00,36.6,33.8,0.00,West,271,0.0,197.8,89,3.49,,,0.00,VWS V14.01,2013-12-04 13:13:00,
2013-12-04 08:19:00,36.7,33.8,0.00,West,271,0.0,197.8,89,3.49,,,0.00,VWS V14.01,2013-12-04 13:19:00,
2013-12-04 08:24:00,36.8,34.0,0.00,West,271,0.0,197.8,89,3.49,,,0.00,VWS V14.01,2013-12-04 13:24:00,
2013-12-04 08:30:00,37.1,34.3,0.00,West,271,0.0,197.8,90,3.49,,,0.00,VWS V14.01,2013-12-04 13:30:00,
2013-12-04 08:36:00,37.3,34.4,0.00,West,271,0.0,197.8,89,3.49,,,0.00,VWS V14.01,2013-12-04 13:36:00,
2013-12-04 08:42:00,37.6,34.7,0.00,West,271,0.0,197.8,89,3.49,,,0.00,VWS V14.01,2013-12-04 13:42:00,
2013-12-04 08:47:00,38.0,35.2,0.00,West,271,0.0,197.8,90,3.49,,,0.00,VWS V14.01,2013-12-04 13:47:00,
2013-12-04 08:52:00,38.6,35.3,0.00,West,271,0.0,197.8,88,3.49,,,0.00,VWS V14.01,2013-12-04 13:52:00,
2013-12-04 08:58:00,38.5,35.0,0.00,West,271,0.0,197.8,87,3.49,,,0.00,VWS V14.01,2013-12-04 13:58:00,
2013-12-04 09:03:00,38.6,35.2,0.00,West,271,0.0,197.8,87,3.49,,,0.00,VWS V14.01,2013-12-04 14:03:00,
2013-12-04 09:08:00,38.7,35.1,0.00,West,271,0.0,197.8,87,3.49,,,0.00,VWS V14.01,2013-12-04 14:08:00,
2013-12-04 09:15:00,39.0,35.6,0.00,West,271,0.0,197.8,88,3.49,,,0.00,VWS V14.01,2013-12-04 14:15:00,
2013-12-04 09:20:00,39.4,35.9,0.00,West,271,0.0,197.8,87,3.49,,,0.00,VWS V14.01,2013-12-04 14:20:00,
2013-12-04 09:26:00,39.7,36.1,0.00,West,271,0.0,197.8,87,3.49,,,0.00,VWS V14.01,2013-12-04 14:26:00,
2013-12-04 09:31:00,40.0,36.4,0.00,West,271,0.0,197.8,87,3.49,,,0.00,VWS V14.01,2013-12-04 14:31:00,
2013-12-04 09:36:00,40.4,36.6,0.00,West,271,0.0,197.8,86,3.49,,,0.00,VWS V14.01,2013-12-04 14:36:00,
2013-12-04 09:41:00,40.9,36.9,0.00,West,271,0.0,197.8,85,3.49,,,0.00,VWS V14.01,2013-12-04 14:41:00,
2013-12-04 09:46:00,41.4,36.9,0.00,West,271,0.0,197.8,84,3.49,,,0.00,VWS V14.01,2013-12-04 14:46:00,
2013-12-04 09:52:00,41.7,36.8,0.00,West,271,0.0,197.8,82,3.49,,,0.00,VWS V14.01,2013-12-04 14:52:00,
2013-12-04 09:57:00,42.1,37.0,0.00,West,271,0.0,197.8,82,3.49,,,0.00,VWS V14.01,2013-12-04 14:57:00,
2013-12-04 10:02:00,42.4,36.7,0.00,West,271,0.0,197.8,80,3.49,,,0.00,VWS V14.01,2013-12-04 15:02:00,
2013-12-04 10:07:00,42.3,36.6,0.00,West,271,0.0,197.8,80,3.49,,,0.00,VWS V14.01,2013-12-04 15:07:00,
2013-12-04 10:12:00,42.4,36.1,0.00,West,271,0.0,197.8,78,3.49,,,0.00,VWS V14.01,2013-12-04 15:12:00,
2013-12-04 10:18:00,42.5,36.7,0.00,West,271,0.0,197.8,80,3.49,,,0.00,VWS V14.01,2013-12-04 15:18:00,
2013-12-04 10:23:00,42.8,36.7,0.00,West,271,0.0,197.8,79,3.49,,,0.00,VWS V14.01,2013-12-04 15:23:00,
2013-12-04 10:28:00,43.1,36.9,0.00,West,271,0.0,197.8,79,3.49,,,0.00,VWS V14.01,2013-12-04 15:28:00,
2013-12-04 10:33:00,43.5,36.8,0.00,West,271,0.0,197.8,77,3.49,,,0.00,VWS V14.01,2013-12-04 15:33:00,
2013-12-04 10:38:00,43.7,36.1,0.00,West,271,0.0,197.8,74,3.49,,,0.00,VWS V14.01,2013-12-04 15:38:00,
2013-12-04 10:44:00,43.9,36.6,0.00,West,271,0.0,197.8,75,3.49,,,0.00,VWS V14.01,2013-12-04 15:44:00,
2013-12-04 10:49:00,44.1,36.7,0.00,West,271,0.0,197.8,75,3.49,,,0.00,VWS V14.01,2013-12-04 15:49:00,
2013-12-04 10:54:00,44.4,37.0,0.00,West,271,0.0,197.8,75,3.49,,,0.00,VWS V14.01,2013-12-04 15:54:00,
2013-12-04 10:59:00,44.9,37.0,0.00,West,271,0.0,197.8,74,3.49,,,0.00,VWS V14.01,2013-12-04 15:59:00,
2013-12-04 11:04:00,45.1,36.6,0.00,West,271,0.0,197.8,72,3.49,,,0.00,VWS V14.01,2013-12-04 16:04:00,
2013-12-04 11:10:00,45.5,37.4,0.00,West,271,0.0,197.8,73,3.49,,,0.00,VWS V14.01,2013-12-04 16:10:00,
2013-12-04 11:15:00,45.7,37.2,0.00,West,271,0.0,197.8,72,3.49,,,0.00,VWS V14.01,2013-12-04 16:15:00,
2013-12-04 11:20:00,46.1,37.2,0.00,West,271,0.0,197.8,71,3.49,,,0.00,VWS V14.01,2013-12-04 16:20:00,
2013-12-04 11:25:00,46.4,37.4,0.00,West,271,0.0,197.8,71,3.49,,,0.00,VWS V14.01,2013-12-04 16:25:00,
2013-12-04 11:30:00,46.8,37.7,0.00,West,271,0.0,197.8,70,3.49,,,0.00,VWS V14.01,2013-12-04 16:30:00,
2013-12-04 11:35:00,47.0,37.3,0.00,West,271,0.0,197.8,69,3.49,,,0.00,VWS V14.01,2013-12-04 16:35:00,
2013-12-04 11:41:00,47.1,37.3,0.00,West,271,0.0,197.8,68,3.49,,,0.00,VWS V14.01,2013-12-04 16:41:00,
2013-12-04 11:46:00,47.4,38.0,0.00,West,271,0.0,197.8,70,3.49,,,0.00,VWS V14.01,2013-12-04 16:46:00,
2013-12-04 11:51:00,47.7,38.0,0.00,West,271,0.0,197.8,69,3.49,,,0.00,VWS V14.01,2013-12-04 16:51:00,
2013-12-04 11:56:00,48.1,38.2,0.00,West,271,0.0,197.8,68,3.49,,,0.00,VWS V14.01,2013-12-04 16:56:00,
2013-12-04 12:01:00,48.3,38.3,0.00,West,271,0.0,197.8,68,3.49,,,0.00,VWS V14.01,2013-12-04 17:01:00,
2013-12-04 12:07:00,48.7,38.8,0.00,West,271,0.0,197.8,69,3.49,,,0.00,VWS V14.01,2013-12-04 17:07:00,
2013-12-04 12:12:00,49.0,38.5,0.00,West,271,0.0,197.8,67,3.49,,,0.00,VWS V14.01,2013-12-04 17:12:00,
2013-12-04 12:17:00,49.1,38.1,0.00,West,271,0.0,197.8,66,3.49,,,0.00,VWS V14.01,2013-12-04 17:17:00,
2013-12-04 12:22:00,49.0,38.1,0.00,West,271,0.0,197.8,66,3.49,,,0.00,VWS V14.01,2013-12-04 17:22:00,
2013-12-04 12:27:00,49.3,38.6,0.00,West,271,0.0,197.8,66,3.49,,,0.00,VWS V14.01,2013-12-04 17:27:00,
2013-12-04 12:33:00,49.5,39.0,0.00,West,271,0.0,197.8,67,3.49,,,0.00,VWS V14.01,2013-12-04 17:33:00,
2013-12-04 12:38:00,50.2,39.3,0.00,West,271,0.0,197.8,66,3.49,,,0.00,VWS V14.01,2013-12-04 17:38:00,
2013-12-04 12:43:00,50.3,39.2,0.00,West,271,0.0,197.8,66,3.49,,,0.00,VWS V14.01,2013-12-04 17:43:00,
2013-12-04 12:48:00,50.8,39.3,0.00,West,271,0.0,197.8,65,3.49,,,0.00,VWS V14.01,2013-12-04 17:48:00,
2013-12-04 12:53:00,51.1,39.5,0.00,West,271,0.0,197.8,64,3.49,,,0.00,VWS V14.01,2013-12-04 17:53:00,
2013-12-04 12:58:00,51.2,39.2,0.00,West,271,0.0,197.8,63,3.49,,,0.00,VWS V14.01,2013-12-04 17:58:00,
2013-12-04 13:04:00,51.8,39.7,0.00,West,271,0.0,197.8,63,3.49,,,0.00,VWS V14.01,2013-12-04 18:04:00,
2013-12-04 13:09:00,51.4,38.5,0.00,West,271,0.0,197.8,61,3.49,,,0.00,VWS V14.01,2013-12-04 18:09:00,
2013-12-04 13:14:00,51.0,38.4,0.00,West,271,0.0,197.8,62,3.49,,,0.00,VWS V14.01,2013-12-04 18:14:00,
2013-12-04 13:19:00,51.2,38.7,0.00,West,271,0.0,197.8,62,3.49,,,0.00,VWS V14.01,2013-12-04 18:19:00,
2013-12-04 13:24:00,51.4,38.6,0.00,West,271,0.0,197.8,62,3.49,,,0.00,VWS V14.01,2013-12-04 18:24:00,
2013-12-04 13:30:00,51.5,39.4,0.00,South,180,2.9,197.8,63,3.49,,,0.00,VWS V14.01,2013-12-04 18:30:00,
2013-12-04 13:35:00,52.0,39.5,0.00,South,180,0.0,197.8,62,3.49,,,0.00,VWS V14.01,2013-12-04 18:35:00,
2013-12-04 13:40:00,51.7,38.5,0.00,West,273,0.0,197.8,61,3.49,,,0.00,VWS V14.01,2013-12-04 18:40:00,
2013-12-04 13:45:00,52.1,39.7,0.00,SE,146,0.0,197.8,62,3.49,,,0.00,VWS V14.01,2013-12-04 18:45:00,
2013-12-04 13:50:00,52.5,39.0,0.00,SE,146,0.0,197.8,60,3.49,,,0.00,VWS V14.01,2013-12-04 18:50:00,
2013-12-04 13:56:00,52.3,39.3,0.00,SE,146,0.0,197.8,61,3.49,,,0.00,VWS V14.01,2013-12-04 18:56:00,
2013-12-04 14:01:00,52.5,39.7,0.00,East,93,5.2,197.8,62,3.49,,,0.00,VWS V14.01,2013-12-04 19:01:00,
2013-12-04 14:06:00,52.7,39.7,0.00,East,86,0.0,197.8,61,3.49,,,0.00,VWS V14.01,2013-12-04 19:06:00,
2013-12-04 14:11:00,52.1,39.0,0.00,East,86,0.0,197.8,61,3.49,,,0.00,VWS V14.01,2013-12-04 19:11:00,
2013-12-04 14:16:00,52.3,39.5,0.00,East,86,0.0,197.8,62,3.49,,,0.00,VWS V14.01,2013-12-04 19:16:00,
2013-12-04 14:22:00,52.2,39.3,0.00,East,86,0.0,197.8,61,3.49,,,0.00,VWS V14.01,2013-12-04 19:22:00,
2013-12-04 14:27:00,52.2,39.5,0.00,East,86,0.0,197.8,62,3.49,,,0.00,VWS V14.01,2013-12-04 19:27:00,
2013-12-04 14:32:00,51.8,39.0,0.00,East,86,0.0,197.8,61,3.49,,,0.00,VWS V14.01,2013-12-04 19:32:00,
2013-12-04 14:37:00,51.9,39.7,0.00,East,86,0.0,197.8,63,3.49,,,0.00,VWS V14.01,2013-12-04 19:37:00,
2013-12-04 14:42:00,52.1,39.6,0.00,East,86,0.0,197.8,62,3.49,,,0.00,VWS V14.01,2013-12-04 19:42:00,
2013-12-04 14:47:00,51.9,39.3,0.00,East,86,0.0,197.8,62,3.49,,,0.00,VWS V14.01,2013-12-04 19:47:00,
2013-12-04 14:53:00,52.0,39.7,0.00,East,86,0.0,197.8,63,3.49,,,0.00,VWS V14.01,2013-12-04 19:53:00,
2013-12-04 14:58:00,51.7,39.0,0.00,East,86,0.0,197.8,62,3.49,,,0.00,VWS V14.01,2013-12-04 19:58:00,
2013-12-04 15:03:00,51.8,39.3,0.00,East,86,0.0,197.8,62,3.49,,,0.00,VWS V14.01,2013-12-04 20:03:00,
2013-12-04 15:08:00,51.3,39.0,0.00,East,86,0.0,197.8,63,3.49,,,0.00,VWS V14.01,2013-12-04 20:08:00,
2013-12-04 15:13:00,51.0,39.0,0.00,East,86,0.0,197.8,63,3.49,,,0.00,VWS V14.01,2013-12-04 20:13:00,
2013-12-04 15:19:00,51.2,39.2,0.00,East,86,0.0,197.8,63,3.49,,,0.00,VWS V14.01,2013-12-04 20:19:00,
2013-12-04 15:24:00,50.8,39.0,0.00,East,86,0.0,197.8,64,3.49,,,0.00,VWS V14.01,2013-12-04 20:24:00,
2013-12-04 15:29:00,50.6,39.2,0.00,East,86,0.0,197.8,65,3.49,,,0.00,VWS V14.01,2013-12-04 20:29:00,
2013-12-04 15:35:00,50.6,39.2,0.00,East,86,0.0,197.8,65,3.49,,,0.00,VWS V14.01,2013-12-04 20:35:00,
2013-12-04 15:40:00,50.1,38.9,0.00,East,86,0.0,197.8,65,3.49,,,0.00,VWS V14.01,2013-12-04 20:40:00,
2013-12-04 15:46:00,49.8,38.8,0.00,East,86,0.0,197.8,66,3.49,,,0.00,VWS V14.01,2013-12-04 20:46:00,
2013-12-04 15:51:00,49.4,38.8,0.00,East,86,0.0,197.8,67,3.49,,,0.00,VWS V14.01,2013-12-04 20:51:00,
2013-12-04 15:57:00,49.1,38.6,0.00,East,86,0.0,197.8,67,3.49,,,0.00,VWS V14.01,2013-12-04 20:57:00,
2013-12-04 16:03:00,48.7,38.5,0.00,East,86,0.0,197.8,68,3.49,,,0.00,VWS V14.01,2013-12-04 21:03:00,
2013-12-04 16:09:00,48.6,38.7,0.00,East,86,0.0,197.8,68,3.49,,,0.00,VWS V14.01,2013-12-04 21:09:00,
2013-12-04 16:14:00,48.2,38.4,0.00,East,86,0.0,197.8,69,3.49,,,0.00,VWS V14.01,2013-12-04 21:14:00,
2013-12-04 16:19:00,47.9,38.3,0.00,East,86,0.0,197.8,69,3.49,,,0.00,VWS V14.01,2013-12-04 21:19:00,
2013-12-04 16:25:00,47.7,38.3,0.00,East,86,0.0,197.8,70,3.49,,,0.00,VWS V14.01,2013-12-04 21:25:00,
2013-12-04 16:31:00,47.5,38.2,0.00,East,86,0.0,197.8,70,3.49,,,0.00,VWS V14.01,2013-12-04 21:31:00,
2013-12-04 16:37:00,47.3,38.3,0.00,East,86,0.0,197.8,71,3.49,,,0.00,VWS V14.01,2013-12-04 21:37:00,
2013-12-04 16:43:00,47.2,38.4,0.00,East,86,0.0,197.8,71,3.49,,,0.00,VWS V14.01,2013-12-04 21:43:00,
2013-12-04 16:48:00,46.9,38.4,0.00,East,86,0.0,197.8,72,3.49,,,0.00,VWS V14.01,2013-12-04 21:48:00,
2013-12-04 16:54:00,46.6,38.3,0.00,East,86,0.0,197.8,73,3.49,,,0.00,VWS V14.01,2013-12-04 21:54:00,
2013-12-04 17:00:00,46.4,38.3,0.00,East,86,0.0,197.8,73,3.49,,,0.00,VWS V14.01,2013-12-04 22:00:00,
2013-12-04 17:05:00,46.3,38.5,0.00,East,86,0.0,197.8,74,3.49,,,0.00,VWS V14.01,2013-12-04 22:05:00,
2013-12-04 17:10:00,46.2,38.6,0.00,East,86,0.0,197.8,75,3.49,,,0.00,VWS V14.01,2013-12-04 22:10:00,
2013-12-04 17:16:00,46.2,38.7,0.00,East,86,0.0,197.8,75,3.49,,,0.00,VWS V14.01,2013-12-04 22:16:00,
2013-12-04 17:21:00,46.3,38.7,0.00,East,86,0.0,197.8,75,3.49,,,0.00,VWS V14.01,2013-12-04 22:21:00,
2013-12-04 17:26:00,46.4,38.8,0.00,East,86,0.0,197.8,75,3.49,,,0.00,VWS V14.01,2013-12-04 22:26:00,
2013-12-04 17:31:00,46.4,38.7,0.00,East,86,0.0,197.8,74,3.49,,,0.00,VWS V14.01,2013-12-04 22:31:00,
2013-12-04 17:36:00,46.3,38.6,0.00,East,86,0.0,197.8,74,3.49,,,0.00,VWS V14.01,2013-12-04 22:36:00,
2013-12-04 17:42:00,46.2,38.7,0.00,East,86,0.0,197.8,75,3.49,,,0.00,VWS V14.01,2013-12-04 22:42:00,
2013-12-04 17:47:00,46.2,38.8,0.00,East,86,0.0,197.8,75,3.49,,,0.00,VWS V14.01,2013-12-04 22:47:00,
2013-12-04 17:52:00,46.4,38.9,0.00,East,86,0.0,197.8,75,3.49,,,0.00,VWS V14.01,2013-12-04 22:52:00,
2013-12-04 17:57:00,46.4,38.9,0.00,East,86,0.0,197.8,75,3.49,,,0.00,VWS V14.01,2013-12-04 22:57:00,
2013-12-04 18:02:00,46.3,38.8,0.00,East,86,0.0,197.8,75,3.49,,,0.00,VWS V14.01,2013-12-04 23:02:00,
2013-12-04 18:07:00,46.1,38.7,0.00,East,86,0.0,197.8,75,3.49,,,0.00,VWS V14.01,2013-12-04 23:07:00,
2013-12-04 18:13:00,45.9,38.6,0.00,East,86,0.0,197.8,75,3.49,,,0.00,VWS V14.01,2013-12-04 23:13:00,
2013-12-04 18:18:00,45.6,38.4,0.00,East,86,0.0,197.8,76,3.49,,,0.00,VWS V14.01,2013-12-04 23:18:00,
2013-12-04 18:23:00,45.3,38.3,0.00,East,86,0.0,197.8,76,3.49,,,0.00,VWS V14.01,2013-12-04 23:23:00,
2013-12-04 18:28:00,45.1,38.3,0.00,East,86,0.0,197.8,77,3.49,,,0.00,VWS V14.01,2013-12-04 23:28:00,
2013-12-04 18:33:00,44.8,38.2,0.00,East,86,0.0,197.8,78,3.49,,,0.00,VWS V14.01,2013-12-04 23:33:00,
2013-12-04 18:39:00,44.7,38.3,0.00,East,86,0.0,197.8,78,3.49,,,0.00,VWS V14.01,2013-12-04 23:39:00,
2013-12-04 18:44:00,44.5,38.2,0.00,East,86,0.0,197.8,78,3.49,,,0.00,VWS V14.01,2013-12-04 23:44:00,
2013-12-04 18:49:00,44.5,38.2,0.00,East,86,0.0,197.8,78,3.49,,,0.00,VWS V14.01,2013-12-04 23:49:00,
2013-12-04 18:54:00,44.4,38.3,0.00,East,86,0.0,197.8,79,3.49,,,0.00,VWS V14.01,2013-12-04 23:54:00,
2013-12-04 18:59:00,44.3,38.3,0.00,East,86,0.0,197.8,79,3.49,,,0.00,VWS V14.01,2013-12-04 23:59:00,
2013-12-04 19:04:00,44.3,38.4,0.00,East,86,0.0,197.8,80,3.49,,,0.00,VWS V14.01,2013-12-05 00:04:00,
2013-12-04 19:10:00,44.4,38.6,0.00,East,86,0.0,197.8,80,3.49,,,0.00,VWS V14.01,2013-12-05 00:10:00,
2013-12-04 19:15:00,44.5,38.7,0.00,East,86,0.0,197.8,80,3.49,,,0.00,VWS V14.01,2013-12-05 00:15:00,
2013-12-04 19:20:00,44.6,38.8,0.00,East,86,0.0,197.8,80,3.49,,,0.00,VWS V14.01,2013-12-05 00:20:00,
2013-12-04 19:25:00,44.9,39.0,0.00,East,86,0.0,197.8,80,3.49,,,0.00,VWS V14.01,2013-12-05 00:25:00,
2013-12-04 19:30:00,45.0,39.1,0.00,East,86,0.0,197.8,80,3.49,,,0.00,VWS V14.01,2013-12-05 00:30:00,
2013-12-04 19:36:00,44.9,39.0,0.00,East,86,0.0,197.8,80,3.49,,,0.00,VWS V14.01,2013-12-05 00:36:00,
2013-12-04 19:41:00,44.9,39.1,0.00,East,86,0.0,197.8,80,3.49,,,0.00,VWS V14.01,2013-12-05 00:41:00,
2013-12-04 19:46:00,44.9,39.1,0.00,East,86,0.0,197.8,80,3.49,,,0.00,VWS V14.01,2013-12-05 00:46:00,
2013-12-04 19:51:00,45.1,39.2,0.00,East,86,0.0,197.8,80,3.49,,,0.00,VWS V14.01,2013-12-05 00:51:00,
2013-12-04 19:56:00,45.3,39.4,0.00,East,86,0.0,197.8,80,3.49,,,0.00,VWS V14.01,2013-12-05 00:56:00,
2013-12-04 20:02:00,45.2,39.3,0.00,East,86,0.0,197.8,80,3.49,,,0.00,VWS V14.01,2013-12-05 01:02:00,
2013-12-04 20:07:00,45.3,39.4,0.00,East,86,0.0,197.8,80,3.49,,,0.00,VWS V14.01,2013-12-05 01:07:00,
2013-12-04 20:12:00,45.3,39.4,0.00,East,86,0.0,197.8,80,3.49,,,0.00,VWS V14.01,2013-12-05 01:12:00,
2013-12-04 20:17:00,45.5,39.6,0.00,East,86,0.0,197.8,80,3.49,,,0.00,VWS V14.01,2013-12-05 01:17:00,
2013-12-04 20:22:00,45.7,39.7,0.00,East,86,0.0,197.8,80,3.49,,,0.00,VWS V14.01,2013-12-05 01:22:00,
2013-12-04 20:28:00,45.8,39.7,0.00,East,86,0.0,197.8,79,3.49,,,0.00,VWS V14.01,2013-12-05 01:28:00,
2013-12-04 20:33:00,45.8,39.8,0.00,East,86,0.0,197.8,79,3.49,,,0.00,VWS V14.01,2013-12-05 01:33:00,
2013-12-04 20:38:00,45.9,39.8,0.00,East,86,0.0,197.8,79,3.49,,,0.00,VWS V14.01,2013-12-05 01:38:00,
2013-12-04 20:43:00,46.0,39.8,0.00,East,86,0.0,197.8,79,3.49,,,0.00,VWS V14.01,2013-12-05 01:43:00,
2013-12-04 20:48:00,45.9,39.8,0.00,East,86,0.0,197.8,79,3.49,,,0.00,VWS V14.01,2013-12-05 01:48:00,
2013-12-04 20:54:00,46.0,40.0,0.00,East,86,0.0,197.8,79,3.49,,,0.00,VWS V14.01,2013-12-05 01:54:00,
2013-12-04 20:59:00,45.9,39.9,0.00,East,86,0.0,197.8,79,3.49,,,0.00,VWS V14.01,2013-12-05 01:59:00,
2013-12-04 21:04:00,45.9,39.9,0.00,East,86,0.0,197.8,79,3.49,,,0.00,VWS V14.01,2013-12-05 02:04:00,
2013-12-04 21:09:00,46.0,39.9,0.00,East,86,0.0,197.8,79,3.49,,,0.00,VWS V14.01,2013-12-05 02:09:00,
2013-12-04 21:14:00,46.0,39.9,0.00,East,86,0.0,197.8,79,3.49,,,0.00,VWS V14.01,2013-12-05 02:14:00,
2013-12-04 21:19:00,46.1,39.9,0.00,East,86,0.0,197.8,79,3.49,,,0.00,VWS V14.01,2013-12-05 02:19:00,
2013-12-04 21:25:00,46.1,39.9,0.00,East,86,0.0,197.8,79,3.49,,,0.00,VWS V14.01,2013-12-05 02:25:00,
2013-12-04 21:30:00,46.1,40.0,0.00,East,86,0.0,197.8,79,3.49,,,0.00,VWS V14.01,2013-12-05 02:30:00,
2013-12-04 21:36:00,46.0,40.0,0.00,East,86,0.0,197.8,79,3.49,,,0.00,VWS V14.01,2013-12-05 02:36:00,
2013-12-04 21:41:00,46.0,40.0,0.00,East,86,0.0,197.8,79,3.49,,,0.00,VWS V14.01,2013-12-05 02:41:00,
2013-12-04 21:46:00,46.0,40.0,0.00,East,86,0.0,197.8,79,3.49,,,0.00,VWS V14.01,2013-12-05 02:46:00,
2013-12-04 21:52:00,46.1,40.1,0.00,East,86,0.0,197.8,79,3.49,,,0.00,VWS V14.01,2013-12-05 02:52:00,
2013-12-04 21:57:00,46.1,40.1,0.00,East,86,0.0,197.8,80,3.49,,,0.00,VWS V14.01,2013-12-05 02:57:00,
2013-12-04 22:02:00,46.1,40.1,0.00,East,86,0.0,197.8,79,3.49,,,0.00,VWS V14.01,2013-12-05 03:02:00,
2013-12-04 22:08:00,46.0,40.0,0.00,East,86,0.0,197.8,80,3.49,,,0.00,VWS V14.01,2013-12-05 03:08:00,
2013-12-04 22:13:00,46.0,40.1,0.00,East,86,0.0,197.8,80,3.49,,,0.00,VWS V14.01,2013-12-05 03:13:00,
2013-12-04 22:18:00,45.9,40.0,0.00,East,86,0.0,197.8,80,3.49,,,0.00,VWS V14.01,2013-12-05 03:18:00,
2013-12-04 22:23:00,45.8,39.8,0.00,East,86,0.0,197.8,79,3.49,,,0.00,VWS V14.01,2013-12-05 03:23:00,
2013-12-04 22:28:00,45.5,39.5,0.00,East,86,0.0,197.8,79,3.49,,,0.00,VWS V14.01,2013-12-05 03:28:00,
2013-12-04 22:34:00,45.1,39.3,0.00,East,86,0.0,197.8,80,3.49,,,0.00,VWS V14.01,2013-12-05 03:34:00,
2013-12-04 22:39:00,44.8,39.1,0.00,East,86,0.0,197.8,80,3.49,,,0.00,VWS V14.01,2013-12-05 03:39:00,
2013-12-04 22:45:00,44.4,38.9,0.00,East,86,0.0,197.8,81,3.49,,,0.00,VWS V14.01,2013-12-05 03:45:00,
2013-12-04 22:50:00,44.2,38.8,0.00,East,86,0.0,197.8,81,3.49,,,0.00,VWS V14.01,2013-12-05 03:50:00,
2013-12-04 22:56:00,44.2,39.1,0.00,East,86,0.0,197.8,82,3.49,,,0.00,VWS V14.01,2013-12-05 03:56:00,
2013-12-04 23:01:00,44.3,39.2,0.00,East,86,0.0,197.8,82,3.49,,,0.00,VWS V14.01,2013-12-05 04:01:00,
2013-12-04 23:06:00,44.6,39.5,0.00,East,86,0.0,197.8,82,3.49,,,0.00,VWS V14.01,2013-12-05 04:06:00,
2013-12-04 23:11:00,44.8,39.7,0.00,East,86,0.0,197.8,82,3.49,,,0.00,VWS V14.01,2013-12-05 04:11:00,
2013-12-04 23:17:00,44.8,39.8,0.00,East,86,0.0,197.8,83,3.49,,,0.00,VWS V14.01,2013-12-05 04:17:00,
2013-12-04 23:22:00,44.7,39.7,0.00,East,86,0.0,197.8,82,3.49,,,0.00,VWS V14.01,2013-12-05 04:22:00,
2013-12-04 23:28:00,44.7,39.7,0.00,East,86,0.0,197.8,82,3.49,,,0.00,VWS V14.01,2013-12-05 04:28:00,
2013-12-04 23:33:00,44.7,39.7,0.00,East,86,0.0,197.8,82,3.49,,,0.00,VWS V14.01,2013-12-05 04:33:00,
2013-12-04 23:39:00,44.8,39.7,0.00,East,86,0.0,197.8,82,3.49,,,0.00,VWS V14.01,2013-12-05 04:39:00,
2013-12-04 23:44:00,44.9,39.8,0.00,East,86,0.0,197.8,82,3.49,,,0.00,VWS V14.01,2013-12-05 04:44:00,
2013-12-04 23:50:00,45.1,40.0,0.00,East,86,0.0,197.8,82,3.49,,,0.00,VWS V14.01,2013-12-05 04:50:00,
2013-12-04 23:55:00,45.2,40.1,0.00,East,86,0.0,197.8,82,3.49,,,0.00,VWS V14.01,2013-12-05 04:55:00,